sat.trackr.live / text

‹ back to catalog

STARLINK-3398

NORAD 51120 · 2022-005S

PAYLOAD ACTIVE UNKNOWN

§ Identity

Operator
Country
US
Launch date
2022-01-19
Launch site
AFETR
Launch vehicle
Mass (kg)
RCS (m²)

Purposes: comms

External: N2YO · Heavens-Above · Gunter

§ Orbital elements

Epoch: 2026-09-20T03:44:08.299104Z

Period
93.85 min
Inclination
53.1597°
Eccentricity
0.0001197
Mean motion
15.34386428 rev/d
Perigee alt
461.9 km
Apogee alt
463.6 km
Semi-major
6,840.9 km
B*
1.3399e-5
RAAN
127.2736°
Arg perigee
87.0725°
Mean anomaly
273.0414°
Rev number
25,835

§ Raw data

STARLINK-33981 51120U 22005S   26263.15565161  .00000076  00000+0  13399-4 0  99982 51120  53.1597 127.2736 0001197  87.0725 273.0414 15.34386428258354

JSON: /api/v1/satellites/51120 · /tle

For live sub-satellite position, see the globe view (requires WebGL).

§ Visibility from observer

Set your observer location to see the next 7 days of passes ≥ 10°. The values pass through the URL so the page stays shareable.

No JS? Fill the form by hand. The geolocation button needs JavaScript.